カタログに戻る

STARLINK-32947

運用中通信VLEO
NORAD 63121·PAYLOAD·🇺🇸 United States

打ち上げ Feb 27, 2025 から Cape Canaveral Space Force Station

Loading…

次のパス (今後24時間)

TLE

最新Source: CelesTrak SupGP

元期: Sep 15, 2026, 03:07 UTC

1 63121C 25039T   26258.13034722  .00007865  00000+0  28481-3 0  2586
2 63121  43.0038  22.4183 0001692 267.5039 144.1975 15.27581495    12

AllMySatでSTARLINK-32947をリアルタイム追跡

Download on the App Store